This demonstration page uses our WeatherBlox Daily Observations layout. Learn more.

Left ArrowRight Arrow

53.62937, 11.41316

Hourly Observations for December 22, 2021

Temp ( °F °C ) Dew Point ( °F °C ) Humidity (%) Winds ( mph kmh ) Pressure ( in mb ) Visibility ( mi km ) Precip ( " mm )
12:20 am 00:20 Mostly Cloudy 28 -2 27 -3 93 93 VRB 2 4 30.30 1026 30 48 N/A
12:50 am 00:50 Mostly Cloudy 28 -2 27 -3 93 93 VRB 2 4 30.30 1026 30 48 N/A
1:20 am 01:20 Partly Cloudy 28 -2 27 -3 93 93 S 5 7 30.30 1026 30 48 N/A
1:50 am 01:50 Mostly Clear 28 -2 27 -3 93 93 S 3 6 30.30 1026 30 48 N/A
2:20 am 02:20 Mostly Cloudy 28 -2 27 -3 93 93 SSW 5 7 30.30 1026 30 48 N/A
2:50 am 02:50 Mostly Cloudy 27 -3 25 -4 93 93 S 5 7 30.33 1027 30 48 N/A
3:20 am 03:20 Mostly Cloudy 27 -3 25 -4 93 93 S 6 9 30.33 1027 30 48 N/A
3:50 am 03:50 Mostly Cloudy 27 -3 23 -5 86 86 SSW 5 7 30.33 1027 30 48 N/A
4:20 am 04:20 Mostly Cloudy 25 -4 23 -5 93 93 S 5 7 30.33 1027 30 48 N/A
4:50 am 04:50 Mostly Cloudy 25 -4 23 -5 93 93 VRB 3 6 30.30 1026 30 48 N/A
5:20 am 05:20 Mostly Cloudy 25 -4 23 -5 93 93 VRB 3 6 30.30 1026 30 48 N/A
5:50 am 05:50 Mostly Cloudy 25 -4 23 -5 93 93 SSW 3 6 30.30 1026 30 48 N/A
6:20 am 06:20 Partly Cloudy 23 -5 23 -5 100 100 VRB 3 6 30.30 1026 5 8 N/A
6:50 am 06:50 Mostly Clear 23 -5 21 -6 93 93 S 3 6 30.30 1026 5 8 N/A
7:20 am 07:20 Mostly Clear 23 -5 21 -6 93 93 VRB 2 4 30.30 1026 4 7 N/A
7:50 am 07:50 Mostly Clear 23 -5 21 -6 93 93 S 3 6 30.30 1026 4 7 N/A
8:20 am 08:20 Partly Cloudy 23 -5 21 -6 93 93 S 5 7 30.30 1026 4 6 N/A
8:50 am 08:50 Mostly Cloudy 23 -5 23 -5 100 100 S 5 7 30.30 1026 4 6 N/A
9:20 am 09:20 Mostly Cloudy with Mist and Fog 23 -5 23 -5 100 100 S 3 6 30.30 1026 2 4 N/A
9:50 am 09:50 Mostly Cloudy with Mist and Fog 25 -4 23 -5 93 93 VRB 2 4 30.30 1026 2 4 N/A
10:20 am 10:20 Mostly Cloudy with Mist and Fog 25 -4 23 -5 93 93 S 5 7 30.30 1026 2 4 N/A
10:50 am 10:50 Mostly Cloudy with Mist and Fog 25 -4 23 -5 93 93 SSW 5 7 30.30 1026 2 4 N/A
11:20 am 11:20 Mostly Cloudy with Mist and Fog 25 -4 25 -4 100 100 SSW 5 7 30.30 1026 2 4 N/A
11:50 am 11:50 Mostly Cloudy with Mist and Fog 25 -4 25 -4 100 100 SSW 3 6 30.30 1026 2 4 N/A
12:20 pm 12:20 Mostly Cloudy with Mist and Fog 27 -3 25 -4 93 93 SSW 3 6 30.30 1026 2 4 N/A
12:50 pm 12:50 Cloudy with Mist and Fog 27 -3 25 -4 93 93 VRB 5 7 30.27 1025 3 5 N/A
2:20 pm 14:20 Mostly Cloudy 27 -3 25 -4 93 93 SSW 3 6 30.27 1025 30 48 N/A
2:50 pm 14:50 Mostly Cloudy 27 -3 27 -3 100 100 S 5 7 30.27 1025 30 48 N/A
3:20 pm 15:20 Cloudy 27 -3 27 -3 100 100 VRB 3 6 30.27 1025 30 48 N/A
3:50 pm 15:50 Cloudy 27 -3 27 -3 100 100 S 5 7 30.24 1024 6 9 N/A
4:20 pm 16:20 Cloudy 27 -3 27 -3 100 100 S 6 9 30.24 1024 6 9 N/A
4:50 pm 16:50 Cloudy 27 -3 27 -3 100 100 S 5 7 30.24 1024 5 8 N/A
5:20 pm 17:20 Cloudy 27 -3 27 -3 100 100 S 5 7 30.24 1024 4 7 N/A
5:50 pm 17:50 Mostly Cloudy 27 -3 27 -3 100 100 S 5 7 30.24 1024 4 6 N/A
6:20 pm 18:20 Mostly Cloudy 27 -3 27 -3 100 100 S 5 7 30.21 1023 4 6 N/A
6:50 pm 18:50 Mostly Cloudy 27 -3 27 -3 100 100 SSE 3 6 30.21 1023 4 6 N/A
7:20 pm 19:20 Mostly Cloudy 27 -3 27 -3 100 100 S 3 6 30.21 1023 4 6 N/A
7:50 pm 19:50 Mostly Cloudy with Mist and Fog 27 -3 27 -3 100 100 SSE 3 6 30.21 1023 3 5 N/A
8:20 pm 20:20 Partly Cloudy with Mist and Fog 27 -3 27 -3 100 100 VRB 3 6 30.18 1022 3 4 N/A
9:20 pm 21:20 Mostly Clear 27 -3 25 -4 93 93 SSE 5 7 30.18 1022 3 5 N/A
9:50 pm 21:50 Mostly Clear 27 -3 25 -4 93 93 S 5 7 30.18 1022 3 5 N/A
10:20 pm 22:20 Mostly Cloudy 27 -3 25 -4 93 93 S 3 6 30.15 1021 3 5 N/A
10:50 pm 22:50 Mostly Cloudy 27 -3 25 -4 93 93 S 3 6 30.15 1021 4 6 N/A
11:20 pm 23:20 Mostly Cloudy 27 -3 25 -4 93 93 VRB 2 4 30.15 1021 4 6 N/A
11:50 pm 23:50 Mostly Cloudy 27 -3 25 -4 93 93 VRB 2 4 30.12 1020 4 6 N/A

Powered by AerisWeather